FW5867 Weather Reports


time (UTC)temp
F
wind
direction
speed
knots
gust
knots
rain 1hr
in
rain 24hr
in
rain mn
in
humidity
%
barometer
mb
20210916113358 62 87 1.7 3.5 0.00 0.72 0.00 54 1060.3
20210916112858 62 118 0.9 6.1 0.00 0.72 0.00 53 1060.2
20210916112358 63 130 1.7 6.1 0.00 0.72 0.00 53 1060.2
20210916111858 63 100 1.7 3.5 0.00 0.72 0.00 49 1060.6
20210916111357 64 92 1.7 4.3 0.00 0.72 0.00 49 1061.2
20210916110857 65 106 1.7 7.8 0.00 0.72 0.00 51 1062.3
20210916110357 64 185 0.9 8.7 0.00 0.72 0.00 52 1062.5
20210916105857 63 104 3.5 8.7 0.00 0.72 0.00 53 1062.1
20210916105357 63 96 2.6 6.1 0.00 0.72 0.00 53 1061.5
20210916104856 63 166 0.0 2.6 0.00 0.72 0.00 53 1061.1
20210916104357 63 106 0.9 3.5 0.00 0.72 0.00 53 1060.9
20210916103856 63 164 1.7 7.8 0.00 0.72 0.00 52 1060.9
20210916103357 63 111 2.6 7.8 0.00 0.74 0.00 50 1061.1
20210916102856 64 104 0.9 5.2 0.00 0.74 0.00 50 1061.3
20210916102356 65 154 1.7 3.5 0.00 0.75 0.00 50 1061.3
20210916101856 65 145 0.9 3.5 0.00 0.78 0.00 50 1061.3
20210916101356 65 47 1.7 3.5 0.00 0.78 0.00 49 1061.4
20210916100856 65 65 1.7 7.8 0.00 0.78 0.00 52 1062.0
20210916100356 64 219 2.6 7.8 0.00 0.78 0.00 49 1062.0
20210916095855 63 109 3.5 6.1 0.00 0.78 0.00 50 1061.6
20210916095356 64 80 2.6 5.2 0.00 0.80 0.00 52 1061.5
20210916094855 63 111 2.6 10.4 0.00 0.80 0.00 52 1061.6
20210916094356 62 148 2.6 10.4 0.00 0.80 0.00 54 1061.3
20210916093855 62 107 5.2 7.8 0.00 0.80 0.00 53 1061.4
20210916093356 62 97 2.6 9.6 0.00 0.80 0.00 54 1061.0
20210916092856 63 107 3.5 9.6 0.00 0.81 0.00 54 1061.2
20210916092355 62 111 1.7 10.4 0.00 0.82 0.00 56 1061.0
20210916091855 62 127 4.3 10.4 0.00 0.82 0.00 54 1060.7
20210916091354 62 69 4.3 6.1 0.00 0.82 0.00 54 1060.5
20210916090855 62 103 2.6 6.1 0.00 0.82 0.00 55 1060.5
20210916090355 62 85 2.6 7.8 0.00 0.82 0.00 57 1060.6
20210916085854 62 79 2.6 7.8 0.00 0.82 0.00 57 1060.6
20210916085354 61 92 0.9 5.2 0.00 0.82 0.00 56 1060.4
20210916084854 62 51 2.6 5.2 0.00 0.83 0.00 56 1060.6
20210916084354 61 243 0.9 5.2 0.00 0.83 0.00 58 1060.3
20210916083854 61 134 1.7 7.8 0.00 0.83 0.00 59 1060.0
20210916083354 60 109 3.5 7.8 0.00 0.83 0.00 59 1059.8
20210916082853 60 106 1.7 9.6 0.00 0.83 0.00 58 1059.6
20210916082354 60 131 4.3 9.6 0.00 0.83 0.00 58 1059.4
20210916081853 59 94 3.5 8.7 0.00 0.83 0.00 59 1059.9
20210916081354 60 69 4.3 8.7 0.00 0.83 0.00 60 1059.8
20210916080854 59 141 3.5 7.8 0.00 0.83 0.00 60 1060.1
20210916080353 58 164 3.5 7.8 0.00 0.83 0.00 61 1060.7
20210916075853 58 109 0.9 3.5 0.00 0.83 0.00 62 1060.5
20210916075354 58 111 2.6 6.1 0.00 0.83 0.00 62 1060.4
20210916074853 57 140 2.6 6.1 0.00 0.83 0.00 62 1060.3
20210916074352 57 75 0.9 2.6 0.00 0.83 0.00 63 1060.3
20210916073852 57 137 0.9 2.6 0.00 0.83 0.00 63 1060.2
20210916073352 57 161 0.9 2.6 0.00 0.83 0.00 63 1060.0
20210916072853 57 219 1.7 2.6 0.00 0.83 0.00 63 1060.2
20210916072352 56 49 1.7 3.5 0.00 0.83 0.00 63 1060.2
20210916071852 56 94 0.9 4.3 0.00 0.83 0.00 63 1060.1
20210916071352 56 83 0.9 5.2 0.00 0.83 0.00 63 1060.1
20210916070851 56 99 2.6 5.2 0.00 0.83 0.00 64 1060.2
20210916070352 56 114 0.9 4.3 0.00 0.83 0.00 64 1060.5
20210916065851 56 102 1.7 4.3 0.00 0.83 0.00 64 1060.1
20210916065352 56 118 1.7 6.1 0.00 0.83 0.00 65 1060.0
20210916064851 55 128 2.6 6.1 0.00 0.83 0.00 65 1059.9
20210916064352 55 116 1.7 3.5 0.00 0.83 0.00 66 1059.8
20210916063851 55 114 0.9 1.7 0.00 0.83 0.00 66 1059.9
20210916063351 55 135 0.0 1.7 0.00 0.83 0.00 66 1059.9
20210916062850 55 65 0.9 1.7 0.00 0.83 0.00 66 1059.9
20210916062351 55 102 0.0 1.7 0.00 0.83 0.00 66 1059.8
20210916061850 55 99 0.0 0.9 0.00 0.83 0.00 66 1059.9
20210916061351 55 107 0.0 0.9 0.00 0.83 0.00 66 1059.8
20210916060851 55 110 0.0 0.9 0.00 0.83 0.00 66 1059.8
20210916060350 55 75 0.0 2.6 0.00 0.83 0.00 66 1060.0
20210916055850 55 100 0.9 2.6 0.00 0.83 0.00 67 1059.5
20210916055350 55 135 0.9 2.6 0.00 0.83 0.00 67 1059.5
20210916054850 55 110 0.9 2.6 0.00 0.83 0.00 67 1059.5
20210916054350 55 75 0.0 0.9 0.00 0.83 0.00 67 1059.4
20210916053850 55 51 0.0 1.7 0.00 0.83 0.00 67 1059.3
20210916053350 55 73 0.9 1.7 0.00 0.83 0.00 67 1059.3
20210916052849 55 54 0.9 1.7 0.00 0.84 0.00 67 1059.3
20210916052349 55 79 0.0 1.7 0.00 0.84 0.00 67 1059.2
20210916051849 55 290 0.0 1.7 0.00 0.84 0.00 67 1059.2
20210916051349 55 78 0.0 1.7 0.00 0.84 0.00 67 1059.3
20210916050849 55 79 0.0 2.6 0.00 0.84 0.00 67 1059.4
20210916050349 55 123 0.0 2.6 0.00 0.85 0.00 67 1059.5
20210916045849 55 128 0.9 2.6 0.00 0.85 0.00 67 1059.5
20210916045349 55 135 0.0 2.6 0.00 0.85 0.00 67 1059.8
20210916044848 56 123 0.0 3.5 0.00 0.85 0.00 67 1059.9
20210916044349 56 97 0.0 3.5 0.00 0.85 0.00 67 1060.1
20210916043848 56 86 0.9 1.7 0.00 0.85 0.00 66 1060.2
20210916043348 56 116 0.0 5.2 0.00 0.85 0.00 66 1060.1
20210916042848 56 75 0.9 5.2 0.00 0.85 0.00 66 1059.6
20210916042348 56 118 0.9 2.6 0.00 0.85 0.00 66 1058.6
20210916041848 56 103 0.0 2.6 0.00 0.86 0.00 66 1058.7
20210916041348 56 116 0.0 2.6 0.00 0.87 0.00 66 1058.6
20210916040847 56 127 0.0 2.6 0.00 0.87 0.00 66 1058.6
20210916040348 56 118 0.9 2.6 0.00 0.87 0.00 66 1058.8
20210916035847 57 107 1.7 2.6 0.00 0.87 0.00 66 1058.7
20210916035347 57 124 0.0 3.5 0.00 0.90 0.00 66 1058.7
20210916034847 57 78 0.0 3.5 0.00 0.90 0.00 66 1058.6
20210916034347 57 97 0.0 1.7 0.00 0.90 0.00 66 1058.5
20210916033847 57 131 0.0 2.6 0.00 0.90 0.00 66 1058.6
20210916033347 57 141 0.0 2.6 0.00 0.90 0.00 66 1058.6
20210916032847 57 121 0.9 2.6 0.00 0.90 0.00 66 1058.6
20210916032346 57 142 0.0 2.6 0.00 0.90 0.00 66 1058.5
20210916031847 57 151 0.9 1.7 0.00 0.91 0.00 66 1058.4
20210916031346 57 233 0.0 3.5 0.00 0.91 0.00 66 1058.4
20210916030847 57 123 0.0 3.5 0.00 0.91 0.00 66 1058.5
20210916030346 57 192 0.9 2.6 0.00 0.91 0.00 66 1058.8
20210916025846 57 190 0.9 2.6 0.00 0.91 0.00 66 1058.5
20210916025346 57 148 0.9 4.3 0.00 0.91 0.00 66 1058.4
20210916024845 58 49 0.9 4.3 0.00 0.91 0.00 66 1058.4
20210916024346 58 140 0.9 2.6 0.00 0.91 0.00 66 1058.4
20210916023845 58 155 0.9 2.6 0.00 0.91 0.00 66 1058.5
20210916023346 58 127 0.9 2.6 0.00 0.91 0.00 66 1058.4
20210916022845 58 155 0.0 2.6 0.00 0.91 0.00 67 1058.5
20210916022345 58 159 0.0 1.7 0.00 0.91 0.00 67 1058.4
20210916021845 58 203 0.0 3.5 0.00 0.91 0.00 67 1058.4
20210916021345 58 133 0.0 3.5 0.00 0.91 0.00 67 1058.4
20210916020844 58 125 0.9 3.5 0.00 0.91 0.00 67 1058.4
20210916020345 58 140 0.0 3.5 0.00 0.91 0.00 67 1058.4
20210916015844 58 128 0.9 1.7 0.00 0.91 0.00 67 1058.3
20210916015345 59 152 0.0 1.7 0.00 0.91 0.00 67 1058.1
20210916014844 59 165 0.0 4.3 0.00 0.91 0.00 67 1057.9
20210916014345 59 196 1.7 4.3 0.00 0.91 0.00 67 1057.9
20210916013844 59 124 1.7 4.3 0.00 0.91 0.00 67 1057.9
20210916013344 59 92 1.7 5.2 0.00 0.91 0.00 67 1057.9
20210916012844 59 107 1.7 5.2 0.00 0.91 0.00 67 1057.9
20210916012344 59 86 0.9 3.5 0.00 0.91 0.00 67 1057.6
20210916011844 59 145 0.9 3.5 0.00 0.91 0.00 67 1057.8
20210916011344 59 124 0.0 2.6 0.00 0.91 0.00 67 1057.6
20210916010844 59 85 0.9 2.6 0.00 0.91 0.00 67 1057.8
20210916010343 59 72 0.9 2.6 0.00 0.91 0.00 67 1057.9
20210916005844 59 87 0.0 0.9 0.00 0.91 0.00 67 1057.8
20210916005343 59 116 0.0 1.7 0.00 0.91 0.00 67 1057.6
20210916004843 59 114 0.0 1.7 0.00 0.91 0.00 67 1057.8
20210916004343 59 93 0.9 1.7 0.00 0.91 0.00 67 1057.5
20210916003843 59 79 0.0 0.9 0.00 0.91 0.00 67 1057.5
20210916003343 59 56 0.0 0.9 0.00 0.91 0.00 67 1057.4
20210916002843 59 130 0.0 0.0 0.00 0.91 0.00 67 1057.3
20210916002342 59 123 0.0 0.9 0.00 0.91 0.00 67 1057.3
20210916001843 60 127 0.0 0.9 0.00 0.91 0.00 67 1057.2
20210916001342 60 100 0.0 1.7 0.00 0.91 0.00 67 1057.3
20210916000843 60 51 0.0 1.7 0.00 0.91 0.00 67 1057.4
20210916000342 60 76 0.0 2.6 0.00 0.91 0.00 67 1057.6
20210915235842 60 90 2.6 2.6 0.00 0.91 0.00 67 1057.3
20210915235342 60 89 0.0 1.7 0.00 0.91 0.00 67 1057.2
20210915234842 60 97 0.0 3.5 0.00 0.91 0.00 67 1057.2
20210915234342 60 106 2.6 3.5 0.00 0.91 0.00 67 1057.4
20210915233842 60 149 0.9 3.5 0.00 0.91 0.00 67 1057.4
20210915233341 60 117 1.7 3.5 0.00 0.91 0.00 67 1057.4
20210915232842 0 121 0.9 0.9 0.00 0.91 0.00 1057.4
20210915232339 60 121 0.9 0.9 0.00 0.91 0.00 67 1057.4
20210915231840 60 130 0.9 1.7 0.00 0.91 0.00 67 1057.3
20210915231339 60 124 0.9 1.7 0.00 0.91 0.00 67 1057.3
20210915230840 60 118 0.9 1.7 0.00 0.91 0.00 67 1057.4
20210915230340 60 111 0.9 1.7 0.00 0.91 0.00 67 1057.6
20210915225839 60 93 0.9 1.7 0.00 0.91 0.00 67 1057.3
20210915225339 61 107 1.7 1.7 0.00 0.91 0.00 67 1057.4
20210915224839 61 90 0.9 1.7 0.00 0.91 0.00 67 1057.3
20210915224339 61 138 0.9 1.7 0.00 0.91 0.00 67 1057.2
20210915223839 61 133 0.9 1.7 0.00 0.91 0.00 67 1057.3
20210915223338 61 82 0.9 1.7 0.00 0.91 0.00 67 1057.3
20210915222839 61 118 0.0 2.6 0.00 0.91 0.00 67 1057.2
20210915222338 61 123 0.0 2.6 0.00 0.91 0.00 67 1057.2
20210915221839 61 155 0.9 2.6 0.00 0.91 0.00 67 1057.0
20210915221338 61 175 1.7 2.6 0.00 0.91 0.00 67 1057.0
20210915220838 61 159 0.0 4.3 0.00 0.91 0.00 67 1057.3
20210915220338 61 125 0.0 4.3 0.00 0.91 0.00 67 1057.5
20210915215837 61 92 1.7 3.5 0.00 0.91 0.91 67 1057.3
20210915215338 61 123 1.7 3.5 0.00 0.91 0.91 67 1057.2
20210915214837 61 131 1.7 4.3 0.00 0.91 0.91 67 1057.3
20210915214337 61 80 0.9 4.3 0.00 0.91 0.91 66 1057.2
20210915213837 61 121 1.7 3.5 0.00 0.91 0.91 66 1057.1
20210915213337 61 103 0.9 2.6 0.00 0.91 0.91 66 1057.0
20210915212837 61 89 0.9 1.7 0.00 0.91 0.91 66 1057.0
20210915212337 61 131 0.9 1.7 0.00 0.91 0.91 66 1057.0
20210915211837 62 128 0.0 1.7 0.00 0.91 0.91 66 1056.9
20210915211336 62 93 1.7 5.2 0.00 0.91 0.91 66 1056.8
20210915210837 62 138 0.9 5.2 0.00 0.91 0.91 66 1056.9
20210915210336 62 128 2.6 5.2 0.00 0.91 0.91 66 1057.1
20210915205837 62 135 0.9 2.6 0.00 0.91 0.91 67 1056.9
20210915205337 62 104 2.6 2.6 0.00 0.91 0.91 67 1056.8
20210915204836 62 124 0.0 0.9 0.00 0.91 0.91 67 1056.8
20210915204337 62 120 0.0 1.7 0.00 0.91 0.91 66 1056.9
20210915203836 62 134 0.0 1.7 0.00 0.91 0.91 66 1056.8
20210915203336 62 125 0.0 0.9 0.00 0.91 0.91 66 1056.7
20210915202836 62 130 0.9 0.9 0.00 0.91 0.91 66 1056.6
20210915202334 0 0.0 0.0 0.00 0.91 0.91 1056.5
20210915201842 62 121 0.9 0.9 0.00 0.91 0.91 67 1056.4
20210915201332 62 121 0.9 0.9 0.00 0.91 0.91 67 1056.4
20210915200832 62 128 0.0 0.9 0.00 0.91 0.91 67 1056.5
20210915200332 62 169 0.9 3.5 0.00 0.91 0.91 67 1056.6
20210915195832 62 135 0.9 3.5 0.00 0.91 0.91 67 1056.3
20210915195332 62 154 0.9 3.5 0.00 0.91 0.91 67 1056.4
20210915194832 62 135 0.0 0.9 0.00 0.91 0.91 67 1056.3
20210915194332 62 116 0.9 0.9 0.00 0.91 0.91 67 1056.3
20210915193831 62 147 0.0 1.7 0.00 0.91 0.91 67 1056.3
20210915193331 62 165 0.9 1.7 0.00 0.91 0.91 67 1056.3
20210915192831 62 130 0.0 0.9 0.00 0.91 0.91 67 1056.1
20210915192331 62 164 0.0 2.6 0.00 0.91 0.91 67 1055.9
20210915191831 62 134 1.7 2.6 0.00 0.91 0.91 67 1055.9
20210915191331 62 128 0.0 0.9 0.00 0.91 0.91 67 1055.9
20210915190830 62 128 0.0 0.9 0.00 0.91 0.91 67 1055.6
20210915190331 62 128 0.9 0.9 0.00 0.91 0.91 67 1055.5
20210915185830 62 133 0.0 0.0 0.00 0.91 0.91 67 1055.3
20210915185331 63 133 0.0 0.9 0.00 0.91 0.91 67 1054.9
20210915184831 63 134 0.0 1.7 0.00 0.91 0.91 67 1054.9
20210915184331 63 159 0.9 2.6 0.01 0.91 0.91 67 1054.8
20210915183830 63 127 0.0 2.6 0.01 0.91 0.91 67 1054.8
20210915183331 63 109 0.9 1.7 0.01 0.91 0.91 67 1054.6
20210915182830 64 107 0.0 0.9 0.01 0.91 0.91 67 1054.4
20210915182330 64 103 0.0 1.7 0.01 0.91 0.91 67 1054.2
20210915181830 64 125 0.9 1.7 0.01 0.91 0.91 67 1054.1
20210915181329 64 158 0.0 2.6 0.01 0.91 0.91 67 1053.9
20210915180829 64 107 1.7 2.6 0.02 0.91 0.91 67 1054.1
20210915180329 64 186 0.0 0.9 0.02 0.91 0.91 67 1054.6
20210915175829 64 116 0.0 0.9 0.02 0.91 0.91 67 1055.1
20210915175329 64 142 0.0 2.6 0.02 0.91 0.91 67 1055.0
20210915174829 64 118 0.9 3.5 0.02 0.91 0.91 67 1054.9
20210915174329 64 189 0.9 3.5 0.01 0.91 0.91 67 1054.8
20210915173829 64 130 0.0 3.5 0.01 0.91 0.91 66 1054.7
20210915173329 64 169 1.7 4.3 0.01 0.91 0.91 66 1054.5
20210915172828 65 118 0.9 5.2 0.01 0.91 0.91 66 1054.5
20210915172329 65 212 1.7 7.8 0.01 0.91 0.91 66 1054.4
20210915171828 65 102 3.5 7.8 0.01 0.91 0.91 66 1054.2
20210915171328 65 118 5.2 6.1 0.01 0.91 0.91 66 1054.0
20210915170828 65 92 1.7 8.7 0.00 0.90 0.90 66 1053.8
20210915170328 66 114 1.7 8.7 0.00 0.90 0.90 66 1053.6
20210915165828 66 111 1.7 6.1 0.00 0.90 0.90 66 1053.0
20210915165327 67 128 3.5 4.3 0.00 0.90 0.90 66 1052.6
20210915164828 67 100 0.0 0.0 0.00 0.90 0.90 66 1052.0
20210915164328 0 100 0.0 0.0 0.00 0.90 0.90 1051.5
20210915163825 67 100 0.0 0.0 0.00 0.90 0.90 66 1051.4
20210915163326 67 100 0.0 0.0 0.00 0.90 0.90 66 1051.3
20210915162825 67 97 0.0 0.9 0.00 0.90 0.90 66 1051.8
20210915162326 68 82 0.0 0.9 0.00 0.90 0.90 66 1053.3
20210915161825 68 56 0.0 1.7 0.00 0.90 0.90 66 1057.1
20210915161325 67 87 0.0 1.7 0.02 0.90 0.90 66 1058.1
20210915160825 67 85 0.0 0.9 0.02 0.90 0.90 66 1061.1
20210915160325 67 123 0.0 0.0 0.02 0.90 0.90 67 1061.8
20210915155825 67 123 0.0 0.9 0.02 0.90 0.90 67 1060.0
20210915155324 67 138 0.9 0.9 0.02 0.90 0.90 67 1057.9
20210915154825 67 148 0.0 0.9 0.02 0.90 0.90 67 1056.4
20210915154324 67 56 0.0 0.9 0.03 0.90 0.90 67 1055.9
20210915153825 67 38 0.0 0.9 0.03 0.90 0.90 67 1056.1
20210915153325 67 61 0.9 0.9 0.03 0.90 0.90 67 1056.3
20210915152824 66 28 0.0 0.0 0.03 0.90 0.90 67 1055.2
20210915152324 66 28 0.0 0.0 0.26 0.90 0.90 67 1055.0
20210915151822 66 28 0.0 0.0 0.26 0.90 0.90 67 1055.1
20210915151322 66 28 0.0 0.0 0.24 0.87 0.87 67 1054.8
20210915150822 66 30 0.0 0.0 0.24 0.87 0.87 67 1054.5
20210915150322 65 116 0.0 0.0 0.24 0.87 0.87 67 1054.3
20210915145821 65 116 0.0 0.9 0.24 0.87 0.87 67 1054.0
20210915145322 65 120 0.0 0.9 0.50 0.87 0.87 67 1054.0
20210915144821 65 120 0.0 0.9 0.50 0.87 0.87 67 1054.1
20210915144322 65 137 0.9 0.9 0.52 0.87 0.87 58 1054.0
20210915143821 65 166 0.0 0.9 0.66 0.87 0.87 58 1054.1
20210915143322 65 145 0.0 0.9 0.66 0.87 0.87 58 1054.2
20210915142821 66 164 0.9 0.9 0.66 0.87 0.87 58 1054.3
20210915142320 0 82 0.0 0.0 0.43 0.64 0.64 1054.2
20210915141818 0 82 0.0 0.0 0.43 0.64 0.64 1054.1
20210915141317 0 0.0 0.0 0.43 0.64 0.64 1053.6
20210915140816 0 0.0 0.0 0.43 0.64 0.64 1053.3
20210915140314 67 138 0.9 0.9 0.43 0.64 0.64 58 1053.4
20210915135812 67 138 0.9 0.9 0.43 0.64 0.64 58 1053.3
20210915135313 67 137 0.0 2.6 0.17 0.38 0.38 58 1053.2
20210915134812 67 114 0.9 7.8 0.17 0.38 0.38 58 1053.3
20210915134312 69 72 3.5 7.8 0.13 0.34 0.34 58 1053.1
20210915134043 70 76 2.6 4.3 0.00 0.20 0.20 60 1053.1
20210915133313 71 127 1.7 3.5 0.00 0.20 0.20 60 1053.5
20210915132811 71 27 1.7 3.5 0.00 0.20 0.20 61 1054.3
20210915132312 70 28 0.9 2.6 0.00 0.20 0.20 61 1054.8
20210915131811 70 31 1.7 4.3 0.00 0.20 0.20 61 1054.5
20210915131312 69 31 2.6 4.3 0.00 0.20 0.20 61 1054.3
20210915130811 69 34 1.7 3.5 0.00 0.20 0.20 64 1054.4
20210915130311 69 61 2.6 6.1 0.00 0.20 0.20 64 1054.9
20210915125811 69 35 3.5 6.1 0.00 0.20 0.20 66 1055.0
20210915125310 69 28 1.7 2.6 0.00 0.20 0.20 66 1055.2
20210915124811 69 11 0.9 3.5 0.00 0.20 0.20 66 1055.1
20210915124311 69 24 0.9 3.5 0.00 0.20 0.20 66 1054.5
20210915123810 69 32 0.9 1.7 0.01 0.20 0.20 66 1054.0
20210915123310 69 17 0.9 1.7 0.01 0.20 0.20 66 1054.0
20210915122810 68 0 0.0 1.7 0.01 0.20 0.20 66 1054.5
20210915122308 68 16 1.7 1.7 0.01 0.20 0.20 67 1055.4
20210915121809 68 18 0.9 3.5 0.01 0.20 0.20 67 1055.6
20210915121308 68 3 0.9 3.5 0.01 0.20 0.20 67 1055.9
20210915120808 68 7 1.7 3.5 0.01 0.20 0.20 67 1056.3
20210915120308 68 20 2.6 3.5 0.02 0.20 0.20 67 1056.8
20210915115808 0 227 0.0 1.7 0.02 0.20 0.20 1056.7
20210915115308 68 49 0.0 3.5 0.02 0.20 0.20 67 1056.9
20210915114808 68 13 2.6 6.1 0.02 0.20 0.20 67 1057.0
20210915114307 67 37 3.5 6.1 0.02 0.20 0.20 67 1057.0